Regional Weather Roundup
Issued by NWS Nashville, TN

Current Version | Previous Version | Text Only | Print | Product List | Glossary Off
Versions: 1 2 3 4 5 6 7 8 9 10 11 12 13 14 15 16 17 18 19 20 21 22 23 24 25 26 27 28

000
ASUS44 KOHX 270610
RWROHX
MIDDLE TENNESSEE HOURLY WEATHER ROUNDUP
NATIONAL WEATHER SERVICE NASHVILLE TN
100 AM CDT THU APR 27 2017

NOTE: "FAIR" INDICATES FEW OR NO CLOUDS BELOW 12,000 FEET WITH
NO SIGNIFICANT WEATHER AND/OR OBSTRUCTIONS TO VISIBILITY.

* THESE REPORTS ARE NOT UNDER NWS QUALITY CONTROL AND MAY NOT
  REPORT WEATHER SUCH AS PRECIPITATION AND FOG.


TNZ005>011-023>034-057-059-062>066-078-080-270700
...NORTHERN MIDDLE TENNESSEE...

CITY           SKY/WX    TMP DP  RH WIND       PRES   REMARKS
CLARKSVILLE    RAIN      60  58  92 S3        29.65S FOG
CROSSVILLE     CLOUDY    67  55  65 S14G29    29.75R
GALLATIN       CLOUDY    73  59  60 S8G17     29.67R
DICKSON        CLOUDY    59  59 100 NW5       29.64F
NASHVILLE      CLOUDY    74  58  57 SW13G21   29.65R
PORTLAND       CLOUDY    72  59  64 S16G23    29.63R
SMYRNA         CLOUDY    73  59  61 S10       29.65F
SPARTA         CLEAR     72  57  60 S14G22    29.68R
SPRINGFIELD    MOCLDY    63  61  94 W6G13     29.65R
WEST NASHVILLE MOCLDY    64  61  88 W12       29.64R
$$
TNZ056-058-060-061-075>077-079-093>097-270700
...SOUTHERN MIDDLE TENNESSEE...

CITY           SKY/WX    TMP DP  RH WIND       PRES   REMARKS
COLUMBIA       CLOUDY   N/A N/A N/A CALM      29.62F
FAYETTEVILLE   CLOUDY    70  57  64 S16G28    29.64F
MCMINNVILLE    CLEAR     72  57  60 S12       29.69R
MURFREESBORO   CLOUDY    72  57  58 S14       29.64S
SHELBYVILLE    CLEAR     73  59  60 S23       29.66F
TULLAHOMA      CLEAR     70  55  60 SE16      29.69F
WINCHESTER     PTCLDY    70  57  64 S8        29.72R
$$


...KEY TO REMARKS...
VSB - VISIBILITY IN MILES
WCI - WIND CHILL INDEX
HX  - HEAT INDEX





USA.gov is the U.S. government's official web portal to all federal, state and local government web resources and services.